{"data":{"norad_id":67938,"epoch":"2026-05-25T05:18:42.219072Z","epoch_age_seconds":49089,"freshness":"FRESH","line1":"1 67938U 26037G   26145.22132198  .00016079  00000+0  59194-3 0  9990","line2":"2 67938  42.9972 118.6533 0001091 263.7991  96.2736 15.27613785 15041","mean_motion":15.27613785,"eccentricity":0.0001091,"inclination_deg":42.9972,"raan_deg":118.6533,"arg_perigee_deg":263.7991,"mean_anomaly_deg":96.2736,"bstar":0.00059194,"rev_number":1504,"period_min":94.264663892124,"perigee_km":482.1993890938,"apogee_km":483.69647782628,"semimajor_km":6861.08493346,"source":"CELESTRAK","updated_at":"2026-05-25T13:38:21.767352Z"}}